Location: Casalecchio di Reno
(44.4760°N, 11.2757°E)
Time: 20:11:21
(UTC+02:00)

QB50P2 - Pass Details

Date: 22 June 2024
Orbit: 561 x 578 km, 98.0° (Epoch: 18 July)

Event Time Altitude Azimuth Distance (km) Brightness Sun altitude
Rises 03:54:50 0° 15° (NNE) 2,768 ? -13.1°
Reaches altitude 10° 03:57:00 10° 17° (NNE) 1,865 ? -12.9°
Maximum altitude 04:01:01 71° 102° (ESE) 598 ? -12.4°
Enters shadow 04:04:29 14° 186° (S) 1,632 ? -12.1°
